Erie, CO

12:40 AM MDT on October 20, 2019 (GMT -0600)
Erie Municipal Airport

Weather History for KEIK - September, 2019

Change the Weather History Date:

Sunday, September 15, 2019

  Actual Average (WUND) Record (WUND)
Temperature  
Mean Temperature 66 °F -  
Max Temperature 86 °F - - (-1)
Min Temperature 45 °F - - (-1)
Growing Degree Days 16 (Base 50)    
Moisture  
Dew Point 35 °F    
Average Humidity 38    
Maximum Humidity 78    
Minimum Humidity 11    
Precipitation  
Precipitation 0.00 in - - ()
Sea Level Pressure  
Sea Level Pressure 30.16 in    
Wind  
Wind Speed 1 mph (West)    
Max Wind Speed 8 mph    
Max Gust Speed -    
Visibility 10 miles    
Events      
Averages and records for this station are not official NWS values.
T = Trace of Precipitation, MM = Missing Value Source: NWS Daily Summary

Daily Weather History Graph

Daily Weather History Graph

Search for Another Location

Airport or City:

Astronomy

Sep. 15, 2019 Rise Set
Actual Time 6:41 AM MDT 7:09 PM MDT
Civil Twilight 6:13 AM MDT 7:36 PM MDT
Nautical Twilight 5:41 AM MDT 8:08 PM MDT
Astronomical Twilight 5:08 AM MDT 8:40 PM MDT
Moon 8:18 PM MDT (9/15) 7:53 AM MDT (9/15)
Length of Visible Light 13h 22m
Length of Day
12h 28m
Full, 98% of the Moon is Illuminated
Sep 15
Full
Sep 21
Last Quarter
Sep 28
New
Oct 5
First Quarter
Oct 13
Full

Hourly Weather History & Observations

Time (MDT) Temp. Windchill Dew Point Humidity Pressure Visibility Wind Dir Wind Speed Gust Speed Precip Events Conditions
12:12 AM 56.7 °F - 34.5 °F 43% 30.24 in 10.0 mi Calm Calm - N/A   Clear
12:35 AM 55.8 °F - 34.9 °F 45% 30.24 in 10.0 mi Calm Calm - N/A   Clear
12:52 AM 55.0 °F - 35.6 °F 48% 30.25 in 10.0 mi Calm Calm - N/A   Clear
1:12 AM 54.3 °F - 36.3 °F 51% 30.25 in 10.0 mi Calm Calm - N/A   Clear
1:35 AM 51.8 °F - 37.2 °F 58% 30.24 in 10.0 mi Calm Calm - N/A   Clear
1:53 AM 51.4 °F - 37.6 °F 59% 30.24 in 10.0 mi WSW 3.5 mph - N/A   Clear
2:12 AM 51.6 °F - 37.2 °F 58% 30.23 in 10.0 mi Calm Calm - N/A   Clear
2:30 AM 51.1 °F - 38.3 °F 62% 30.23 in 10.0 mi Calm Calm - N/A   Clear
2:54 AM 50.2 °F - 38.7 °F 65% 30.23 in 10.0 mi Calm Calm - N/A   Clear
3:12 AM 49.6 °F - 38.3 °F 65% 30.23 in 10.0 mi Calm Calm - N/A   Clear
3:35 AM 48.9 °F - 37.9 °F 66% 30.22 in 10.0 mi SW 3.5 mph - N/A   Clear
3:53 AM 47.8 °F - 38.3 °F 70% 30.22 in 10.0 mi SW 3.5 mph - N/A   Clear
4:12 AM 47.7 °F - 38.1 °F 70% 30.22 in 10.0 mi Calm Calm - N/A   Clear
4:34 AM 48.7 °F - 37.8 °F 66% 30.22 in 10.0 mi Calm Calm - N/A   Clear
4:52 AM 49.3 °F - 37.4 °F 64% 30.22 in 10.0 mi Calm Calm - N/A   Clear
5:12 AM 49.1 °F - 37.0 °F 63% 30.22 in 10.0 mi Calm Calm - N/A   Clear
5:35 AM 48.7 °F - 37.4 °F 65% 30.22 in 10.0 mi Calm Calm - N/A   Clear
5:53 AM 49.8 °F - 37.0 °F 61% 30.23 in 10.0 mi Calm Calm - N/A   Clear
6:13 AM 45.7 °F 44.4 °F 39.2 °F 78% 30.22 in 10.0 mi WSW 3.5 mph - N/A   Clear
6:31 AM 47.3 °F - 37.8 °F 69% 30.22 in 10.0 mi Calm Calm - N/A   Clear
6:49 AM 46.4 °F 45.2 °F 37.6 °F 71% 30.22 in 7.0 mi SW 3.5 mph - N/A   Clear
7:12 AM 46.2 °F 45.0 °F 37.6 °F 72% 30.23 in 10.0 mi SW 3.5 mph - N/A   Clear
7:29 AM 48.7 °F - 38.3 °F 67% 30.23 in 10.0 mi Calm Calm - N/A   Clear
7:53 AM 51.1 °F - 37.0 °F 59% 30.23 in 10.0 mi South 3.5 mph - N/A   Clear
8:12 AM 52.9 °F - 37.9 °F 57% 30.23 in 10.0 mi Calm Calm - N/A   Clear
8:34 AM 59.4 °F - 36.1 °F 42% 30.23 in 10.0 mi Calm Calm - N/A   Clear
8:52 AM 63.1 °F - 36.3 °F 37% 30.23 in 10.0 mi Calm Calm - N/A   Clear
9:12 AM 67.6 °F - 34.3 °F 29% 30.23 in 10.0 mi Calm Calm - N/A   Clear
9:29 AM 70.7 °F - 32.0 °F 24% 30.22 in 10.0 mi Calm Calm - N/A   Clear
9:52 AM 73.2 °F - 28.6 °F 19% 30.22 in 10.0 mi Calm Calm - N/A   Clear
10:11 AM 74.8 °F - 28.9 °F 18% 30.22 in 10.0 mi Calm Calm - N/A   Clear
10:29 AM 75.2 °F - 28.6 °F 18% 30.22 in 10.0 mi Calm Calm - N/A   Clear
10:53 AM 78.1 °F - 28.6 °F 16% 30.21 in 10.0 mi Calm Calm - N/A   Clear
11:11 AM 78.6 °F - 26.6 °F 15% 30.20 in 10.0 mi NNE 3.5 mph - N/A   Clear
11:29 AM 79.5 °F - 24.8 °F 13% 30.20 in 10.0 mi Calm Calm - N/A   Clear
11:53 AM 80.8 °F - 25.7 °F 13% 30.19 in 10.0 mi Calm Calm - N/A   Clear
12:11 PM 81.3 °F - 26.6 °F 13% 30.18 in 10.0 mi Calm Calm - N/A   Clear
12:35 PM 83.1 °F - 27.1 °F 13% 30.18 in 10.0 mi Calm Calm - N/A   Clear
12:53 PM 83.7 °F - 26.8 °F 13% 30.16 in 10.0 mi Calm Calm - N/A   Clear
1:12 PM 86.0 °F - 26.4 °F 11% 30.16 in 10.0 mi SSE 4.6 mph - N/A   Clear
1:35 PM 85.3 °F - 26.6 °F 12% 30.15 in 10.0 mi East 5.8 mph - N/A   Clear
1:53 PM 86.7 °F - 28.2 °F 12% 30.14 in 10.0 mi ENE 3.5 mph - N/A   Clear
2:12 PM 86.0 °F - 26.6 °F 12% 30.13 in 10.0 mi ESE 4.6 mph - N/A   Clear
2:53 PM 86.7 °F - 25.9 °F 11% 30.11 in 10.0 mi Calm Calm - N/A   Clear
3:11 PM 86.0 °F - 27.0 °F 12% 30.10 in 10.0 mi Calm Calm - N/A   Clear
3:35 PM 86.0 °F - 28.4 °F 12% 30.09 in 10.0 mi NE 8.1 mph - N/A   Clear
3:52 PM 86.0 °F - 28.2 °F 12% 30.08 in 10.0 mi North 4.6 mph - N/A   Clear
4:11 PM 86.0 °F - 27.9 °F 12% 30.08 in 10.0 mi North 8.1 mph - N/A   Clear
4:35 PM 85.8 °F - 30.0 °F 13% 30.07 in 10.0 mi North 5.8 mph - N/A   Clear
4:53 PM 83.7 °F - 32.5 °F 16% 30.06 in 10.0 mi NW 8.1 mph - N/A   Clear
5:11 PM 82.0 °F - 35.2 °F 19% 30.06 in 10.0 mi NNW 8.1 mph - N/A   Clear
5:35 PM 81.1 °F - 35.2 °F 19% 30.06 in 10.0 mi NW 5.8 mph - N/A   Clear
5:52 PM 81.0 °F - 35.8 °F 20% 30.06 in 10.0 mi NNW 4.6 mph - N/A   Clear
6:15 PM 81.0 °F - 33.4 °F 18% 30.06 in 10.0 mi Calm Calm - N/A   Clear
6:33 PM 80.4 °F - 33.8 °F 19% 30.06 in 10.0 mi Calm Calm - N/A   Clear
6:51 PM 77.9 °F - 36.0 °F 22% 30.06 in 10.0 mi SSW 4.6 mph - N/A   Clear
7:11 PM 76.3 °F - 35.8 °F 23% 30.06 in 10.0 mi WSW 4.6 mph - N/A   Clear
7:35 PM 75.0 °F - 37.2 °F 25% 30.06 in 10.0 mi SW 3.5 mph - N/A   Clear
7:53 PM 72.1 °F - 37.9 °F 29% 30.06 in 10.0 mi Calm Calm - N/A   Clear
8:12 PM 70.7 °F - 38.7 °F 31% 30.06 in 10.0 mi Calm Calm - N/A   Clear
8:30 PM 68.7 °F - 40.5 °F 36% 30.06 in 10.0 mi Calm Calm - N/A   Clear
8:53 PM 64.0 °F - 41.2 °F 43% 30.06 in 10.0 mi Calm Calm - N/A   Clear
9:12 PM 64.6 °F - 41.5 °F 43% 30.07 in 10.0 mi Calm Calm - N/A   Clear
9:30 PM 61.9 °F - 42.4 °F 49% 30.07 in 10.0 mi Calm Calm - N/A   Clear
9:53 PM 62.6 °F - 41.5 °F 46% 30.06 in 10.0 mi Calm Calm - N/A   Clear
10:11 PM 61.3 °F - 41.4 °F 48% 30.06 in 10.0 mi Calm Calm - N/A   Clear
10:34 PM 59.9 °F - 41.0 °F 50% 30.06 in 10.0 mi Calm Calm - N/A   Clear
10:52 PM 60.8 °F - 41.9 °F 50% 30.05 in 10.0 mi Calm Calm - N/A   Clear
11:11 PM 61.3 °F - 41.9 °F 49% 30.05 in 10.0 mi Calm Calm - N/A   Clear
11:29 PM 60.8 °F - 42.4 °F 51% 30.05 in 10.0 mi Calm Calm - N/A   Clear
11:53 PM 56.8 °F - 43.2 °F 60% 30.04 in 10.0 mi Calm Calm - N/A   Clear